| time (UTC) | temp C | wind direction | speed KPH | gust KPH | rain 1hr cm | rain 24hr cm | rain mn cm | humidity % | barometer mb |
| 20260510215049 | 36 | 190 | 1.6 | 6.4 | 0.00 | 0.00 | 0.00 | 29 | 1006.3 |
| 20260510214602 | 36 | 0 | 0.0 | 0.0 | 0.00 | 0.00 | 0.00 | 29 | 1006.2 |
| 20260510214550 | 36 | 190 | 0.0 | 0.0 | 0.00 | 0.00 | 0.00 | 29 | 1006.3 |
| 20260510214051 | 36 | 190 | 0.0 | 6.4 | 0.00 | 0.00 | 0.00 | 29 | 1006.4 |
| 20260510213552 | 36 | 190 | 0.0 | 16.1 | 0.00 | 0.00 | 0.00 | 30 | 1006.3 |
| 20260510213100 | 36 | 190 | 8.0 | 16.1 | 0.00 | 0.00 | 0.00 | 29 | 1006.2 |
| 20260510213050 | 36 | 190 | 8.0 | 16.1 | 0.00 | 0.00 | 0.00 | 29 | 1006.3 |
| 20260510212548 | 36 | 190 | 4.8 | 17.7 | 0.00 | 0.00 | 0.00 | 30 | 1006.2 |
| 20260510212048 | 36 | 190 | 8.0 | 17.7 | 0.00 | 0.00 | 0.00 | 29 | 1006.2 |
| 20260510211557 | 36 | 190 | 6.4 | 11.3 | 0.00 | 0.00 | 0.00 | 29 | 1006.0 |
| 20260510211547 | 36 | 190 | 3.2 | 11.3 | 0.00 | 0.00 | 0.00 | 30 | 1006.3 |
| 20260510211044 | 36 | 190 | 0.0 | 8.0 | 0.00 | 0.00 | 0.00 | 30 | 1006.4 |
| 20260510210543 | 36 | 190 | 0.0 | 14.5 | 0.00 | 0.00 | 0.00 | 30 | 1006.5 |
| 20260510210059 | 36 | 190 | 8.0 | 17.7 | 0.00 | 0.00 | 0.00 | 29 | 1006.6 |
| 20260510210045 | 36 | 190 | 6.4 | 17.7 | 0.00 | 0.00 | 0.00 | 30 | 1006.8 |
| 20260510205541 | 36 | 190 | 4.8 | 16.1 | 0.00 | 0.00 | 0.00 | 30 | 1006.9 |
| 20260510205040 | 36 | 190 | 4.8 | 16.1 | 0.00 | 0.00 | 0.00 | 31 | 1007.0 |
| 20260510204603 | 35 | 0 | 3.2 | 8.0 | 0.00 | 0.00 | 0.00 | 30 | 1006.8 |
| 20260510204540 | 35 | 190 | 1.6 | 8.0 | 0.00 | 0.00 | 0.00 | 30 | 1007.1 |
| 20260510204039 | 35 | 190 | 0.0 | 8.0 | 0.00 | 0.00 | 0.00 | 30 | 1007.2 |
| 20260510203539 | 35 | 190 | 1.6 | 6.4 | 0.00 | 0.00 | 0.00 | 30 | 1007.1 |
| 20260510203059 | 36 | 190 | 3.2 | 11.3 | 0.00 | 0.00 | 0.00 | 29 | 1006.9 |
| 20260510203038 | 36 | 190 | 1.6 | 11.3 | 0.00 | 0.00 | 0.00 | 30 | 1007.1 |
| 20260510202537 | 36 | 190 | 3.2 | 11.3 | 0.00 | 0.00 | 0.00 | 29 | 1007.2 |
| 20260510202038 | 36 | 190 | 0.0 | 8.0 | 0.00 | 0.00 | 0.00 | 29 | 1007.3 |
| 20260510201610 | 36 | 190 | 1.6 | 6.4 | 0.00 | 0.00 | 0.00 | 29 | 1007.3 |
| 20260510201538 | 36 | 190 | 0.0 | 6.4 | 0.00 | 0.00 | 0.00 | 30 | 1007.6 |
| 20260510201032 | 36 | 190 | 0.0 | 6.4 | 0.00 | 0.00 | 0.00 | 29 | 1007.8 |
| 20260510200532 | 35 | 190 | 1.6 | 8.0 | 0.00 | 0.00 | 0.00 | 30 | 1008.0 |
| 20260510200059 | 35 | 0 | 1.6 | 8.0 | 0.00 | 0.00 | 0.00 | 30 | 1007.9 |
| 20260510200030 | 35 | 190 | 0.0 | 8.0 | 0.00 | 0.00 | 0.00 | 30 | 1008.2 |
| 20260510195529 | 35 | 190 | 0.0 | 4.8 | 0.00 | 0.00 | 0.00 | 30 | 1008.3 |
| 20260510195029 | 35 | 190 | 0.0 | 4.8 | 0.00 | 0.00 | 0.00 | 30 | 1008.3 |
| 20260510194606 | 35 | 0 | 0.0 | 9.7 | 0.00 | 0.00 | 0.00 | 30 | 1008.2 |
| 20260510194529 | 35 | 190 | 0.0 | 4.8 | 0.00 | 0.00 | 0.00 | 30 | 1008.4 |
| 20260510194027 | 35 | 190 | 0.0 | 11.3 | 0.00 | 0.00 | 0.00 | 30 | 1008.5 |
| 20260510193527 | 36 | 190 | 4.8 | 16.1 | 0.00 | 0.00 | 0.00 | 30 | 1008.6 |
| 20260510193102 | 35 | 190 | 8.0 | 16.1 | 0.00 | 0.00 | 0.00 | 31 | 1008.4 |
| 20260510193025 | 35 | 190 | 6.4 | 16.1 | 0.00 | 0.00 | 0.00 | 31 | 1008.7 |
| 20260510192527 | 35 | 190 | 1.6 | 14.5 | 0.00 | 0.00 | 0.00 | 31 | 1008.8 |
| 20260510192022 | 35 | 190 | 1.6 | 12.9 | 0.00 | 0.00 | 0.00 | 31 | 1008.9 |
| 20260510191601 | 35 | 190 | 6.4 | 12.9 | 0.00 | 0.00 | 0.00 | 30 | 1008.7 |
| 20260510191521 | 35 | 190 | 6.4 | 12.9 | 0.00 | 0.00 | 0.00 | 31 | 1008.9 |
| 20260510191020 | 35 | 190 | 1.6 | 9.7 | 0.00 | 0.00 | 0.00 | 31 | 1009.1 |
| 20260510190519 | 35 | 190 | 1.6 | 8.0 | 0.00 | 0.00 | 0.00 | 31 | 1009.2 |
| 20260510190022 | 35 | 190 | 0.0 | 8.0 | 0.00 | 0.00 | 0.00 | 32 | 1009.3 |
| 20260510185518 | 35 | 190 | 1.6 | 8.0 | 0.00 | 0.00 | 0.00 | 31 | 1009.4 |
| 20260510185018 | 35 | 190 | 0.0 | 8.0 | 0.00 | 0.00 | 0.00 | 32 | 1009.6 |
| 20260510184605 | 35 | 190 | 0.0 | 9.7 | 0.00 | 0.00 | 0.00 | 31 | 1009.2 |
| 20260510184526 | 35 | 190 | 0.0 | 9.7 | 0.00 | 0.00 | 0.00 | 32 | 1009.7 |
| 20260510184014 | 34 | 190 | 0.0 | 9.7 | 0.00 | 0.00 | 0.00 | 33 | 1009.8 |
| 20260510183514 | 34 | 190 | 0.0 | 9.7 | 0.00 | 0.00 | 0.00 | 33 | 1009.9 |
| 20260510183057 | 33 | 0 | 3.2 | 12.9 | 0.00 | 0.00 | 0.00 | 33 | 1009.6 |
| 20260510183012 | 33 | 190 | 1.6 | 12.9 | 0.00 | 0.00 | 0.00 | 34 | 1010.0 |
| 20260510182510 | 33 | 190 | 4.8 | 14.5 | 0.00 | 0.00 | 0.00 | 33 | 1010.2 |
| 20260510182013 | 33 | 190 | 1.6 | 14.5 | 0.00 | 0.00 | 0.00 | 34 | 1010.3 |
| 20260510181609 | 33 | 190 | 3.2 | 9.7 | 0.00 | 0.00 | 0.00 | 34 | 1010.0 |
| 20260510181509 | 33 | 190 | 3.2 | 9.7 | 0.00 | 0.00 | 0.00 | 34 | 1010.5 |
| 20260510181010 | 33 | 190 | 0.0 | 4.8 | 0.00 | 0.00 | 0.00 | 35 | 1010.5 |
| 20260510180508 | 33 | 190 | 0.0 | 12.9 | 0.00 | 0.00 | 0.00 | 36 | 1010.6 |
| 20260510180110 | 33 | 190 | 6.4 | 12.9 | 0.00 | 0.00 | 0.00 | 34 | 1010.4 |
| 20260510180007 | 33 | 190 | 4.8 | 12.9 | 0.00 | 0.00 | 0.00 | 35 | 1010.8 |
| 20260510175505 | 33 | 190 | 1.6 | 8.0 | 0.00 | 0.00 | 0.00 | 35 | 1010.9 |
| 20260510175005 | 33 | 190 | 1.6 | 11.3 | 0.00 | 0.00 | 0.00 | 36 | 1010.9 |
| 20260510174557 | 33 | 190 | 3.2 | 14.5 | 0.00 | 0.00 | 0.00 | 35 | 1010.6 |
| 20260510174506 | 33 | 190 | 3.2 | 11.3 | 0.00 | 0.00 | 0.00 | 36 | 1011.0 |
| 20260510174007 | 33 | 190 | 4.8 | 14.5 | 0.00 | 0.00 | 0.00 | 35 | 1011.0 |
| 20260510173504 | 33 | 190 | 0.0 | 9.7 | 0.00 | 0.00 | 0.00 | 36 | 1011.0 |
| 20260510173104 | 32 | 0 | 4.8 | 9.7 | 0.00 | 0.00 | 0.00 | 35 | 1010.6 |
| 20260510173004 | 32 | 190 | 4.8 | 9.7 | 0.00 | 0.00 | 0.00 | 36 | 1011.1 |
| 20260510172501 | 32 | 190 | 1.6 | 8.0 | 0.00 | 0.00 | 0.00 | 37 | 1011.2 |
| 20260510172101 | 32 | 190 | 1.6 | 8.0 | 0.00 | 0.00 | 0.00 | 38 | 1011.4 |
| 20260510171606 | 32 | 190 | 1.6 | 16.1 | 0.00 | 0.00 | 0.00 | 37 | 1011.0 |
| 20260510171603 | 32 | 190 | 1.6 | 16.1 | 0.00 | 0.00 | 0.00 | 38 | 1011.5 |
| 20260510171100 | 32 | 190 | 8.0 | 16.1 | 0.00 | 0.00 | 0.00 | 37 | 1011.7 |
| 20260510170600 | 32 | 190 | 1.6 | 9.7 | 0.00 | 0.00 | 0.00 | 37 | 1011.7 |
| 20260510170105 | 32 | 190 | 0.0 | 9.7 | 0.00 | 0.00 | 0.00 | 38 | 1011.7 |
| 20260510170101 | 32 | 190 | 1.6 | 9.7 | 0.00 | 0.00 | 0.00 | 37 | 1011.2 |
| 20260510165558 | 31 | 190 | 1.6 | 11.3 | 0.00 | 0.00 | 0.00 | 39 | 1011.7 |
| 20260510165057 | 31 | 190 | 3.2 | 12.9 | 0.00 | 0.00 | 0.00 | 39 | 1011.9 |
| 20260510164602 | 31 | 190 | 1.6 | 9.7 | 0.00 | 0.00 | 0.00 | 38 | 1011.4 |
| 20260510164556 | 31 | 190 | 3.2 | 9.7 | 0.00 | 0.00 | 0.00 | 39 | 1011.9 |
| 20260510164055 | 31 | 190 | 4.8 | 9.7 | 0.00 | 0.00 | 0.00 | 40 | 1012.0 |
| 20260510163554 | 31 | 190 | 0.0 | 8.0 | 0.00 | 0.00 | 0.00 | 40 | 1012.0 |
| 20260510163057 | 31 | 190 | 1.6 | 8.0 | 0.00 | 0.00 | 0.00 | 40 | 1011.6 |
| 20260510163054 | 31 | 190 | 3.2 | 8.0 | 0.00 | 0.00 | 0.00 | 40 | 1012.1 |
| 20260510162551 | 30 | 190 | 1.6 | 9.7 | 0.00 | 0.00 | 0.00 | 40 | 1012.2 |
| 20260510162051 | 30 | 190 | 3.2 | 9.7 | 0.00 | 0.00 | 0.00 | 41 | 1012.3 |
| 20260510161606 | 30 | 190 | 3.2 | 8.0 | 0.00 | 0.00 | 0.00 | 41 | 1011.7 |
| 20260510161553 | 30 | 190 | 3.2 | 8.0 | 0.00 | 0.00 | 0.00 | 41 | 1012.2 |
| 20260510161051 | 30 | 190 | 0.0 | 8.0 | 0.00 | 0.00 | 0.00 | 42 | 1012.3 |
| 20260510160549 | 30 | 190 | 0.0 | 6.4 | 0.00 | 0.00 | 0.00 | 42 | 1012.4 |
| 20260510160115 | 29 | 190 | 3.2 | 8.0 | 0.00 | 0.00 | 0.00 | 43 | 1012.5 |
| 20260510155546 | 29 | 190 | 0.0 | 8.0 | 0.00 | 0.00 | 0.00 | 43 | 1012.5 |
| 20260510155046 | 29 | 190 | 1.6 | 6.4 | 0.00 | 0.00 | 0.00 | 43 | 1012.5 |
| 20260510154605 | 28 | 0 | 3.2 | 8.0 | 0.00 | 0.00 | 0.00 | 44 | 1012.0 |
| 20260510154545 | 28 | 190 | 0.0 | 8.0 | 0.00 | 0.00 | 0.00 | 44 | 1012.5 |
| 20260510154044 | 28 | 190 | 1.6 | 6.4 | 0.00 | 0.00 | 0.00 | 47 | 1012.5 |
| 20260510153543 | 28 | 190 | 3.2 | 6.4 | 0.00 | 0.00 | 0.00 | 47 | 1012.6 |
| 20260510153104 | 28 | 190 | 0.0 | 6.4 | 0.00 | 0.00 | 0.00 | 47 | 1012.1 |
| 20260510153044 | 28 | 190 | 1.6 | 6.4 | 0.00 | 0.00 | 0.00 | 47 | 1012.6 |
| 20260510152542 | 28 | 190 | 0.0 | 6.4 | 0.00 | 0.00 | 0.00 | 48 | 1012.7 |
| 20260510152041 | 28 | 190 | 1.6 | 6.4 | 0.00 | 0.00 | 0.00 | 49 | 1012.7 |
| 20260510151600 | 28 | 0 | 0.0 | 4.8 | 0.00 | 0.00 | 0.00 | 49 | 1012.1 |
| 20260510151541 | 28 | 190 | 0.0 | 4.8 | 0.00 | 0.00 | 0.00 | 50 | 1012.7 |
| 20260510151041 | 28 | 190 | 0.0 | 4.8 | 0.00 | 0.00 | 0.00 | 50 | 1012.8 |
| 20260510150539 | 28 | 190 | 0.0 | 4.8 | 0.00 | 0.00 | 0.00 | 51 | 1012.9 |
| 20260510150123 | 27 | 0 | 0.0 | 6.4 | 0.00 | 0.00 | 0.00 | 52 | 1012.2 |
| 20260510150037 | 27 | 190 | 0.0 | 6.4 | 0.00 | 0.00 | 0.00 | 52 | 1012.9 |
| 20260510145536 | 27 | 190 | 0.0 | 1.6 | 0.00 | 0.00 | 0.00 | 53 | 1013.0 |
| 20260510145035 | 27 | 190 | 0.0 | 3.2 | 0.00 | 0.00 | 0.00 | 53 | 1013.1 |
| 20260510144605 | 27 | 0 | 0.0 | 4.8 | 0.00 | 0.00 | 0.00 | 53 | 1012.4 |
| 20260510144535 | 26 | 190 | 0.0 | 4.8 | 0.00 | 0.00 | 0.00 | 53 | 1013.1 |
| 20260510144036 | 26 | 190 | 1.6 | 4.8 | 0.00 | 0.00 | 0.00 | 54 | 1013.1 |
| 20260510143535 | 26 | 190 | 0.0 | 3.2 | 0.00 | 0.00 | 0.00 | 54 | 1013.2 |
| 20260510143102 | 26 | 0 | 0.0 | 3.2 | 0.00 | 0.00 | 0.00 | 54 | 1012.5 |
| 20260510143039 | 26 | 190 | 0.0 | 3.2 | 0.00 | 0.00 | 0.00 | 55 | 1013.1 |
| 20260510142533 | 26 | 190 | 0.0 | 3.2 | 0.00 | 0.00 | 0.00 | 56 | 1013.2 |
| 20260510142036 | 26 | 190 | 0.0 | 3.2 | 0.00 | 0.00 | 0.00 | 56 | 1013.1 |
| 20260510141602 | 26 | 0 | 0.0 | 4.8 | 0.00 | 0.00 | 0.00 | 56 | 1012.4 |
| 20260510141533 | 26 | 190 | 0.0 | 0.0 | 0.00 | 0.00 | 0.00 | 57 | 1013.1 |
| 20260510141031 | 25 | 190 | 0.0 | 4.8 | 0.00 | 0.00 | 0.00 | 58 | 1013.1 |
| 20260510140531 | 25 | 190 | 1.6 | 6.4 | 0.00 | 0.00 | 0.00 | 58 | 1013.0 |
| 20260510140031 | 25 | 190 | 0.0 | 6.4 | 0.00 | 0.00 | 0.00 | 59 | 1013.0 |
| 20260510135531 | 25 | 190 | 0.0 | 6.4 | 0.00 | 0.00 | 0.00 | 59 | 1013.0 |
| 20260510135031 | 25 | 190 | 1.6 | 6.4 | 0.00 | 0.00 | 0.00 | 60 | 1012.9 |
| 20260510134604 | 24 | 0 | 3.2 | 6.4 | 0.00 | 0.00 | 0.00 | 60 | 1012.0 |
| 20260510134531 | 24 | 190 | 3.2 | 6.4 | 0.00 | 0.00 | 0.00 | 61 | 1012.8 |
| 20260510134029 | 24 | 190 | 0.0 | 6.4 | 0.00 | 0.00 | 0.00 | 62 | 1012.8 |
| 20260510133528 | 23 | 190 | 1.6 | 6.4 | 0.00 | 0.00 | 0.00 | 63 | 1012.7 |
| 20260510133110 | 23 | 190 | 0.0 | 6.4 | 0.00 | 0.00 | 0.00 | 63 | 1011.9 |
| 20260510133027 | 23 | 190 | 0.0 | 6.4 | 0.00 | 0.00 | 0.00 | 64 | 1012.5 |
| 20260510132526 | 23 | 190 | 1.6 | 6.4 | 0.00 | 0.00 | 0.00 | 64 | 1012.4 |
| 20260510132026 | 22 | 190 | 1.6 | 4.8 | 0.00 | 0.00 | 0.00 | 65 | 1012.4 |
| 20260510131608 | 22 | 190 | 0.0 | 4.8 | 0.00 | 0.00 | 0.00 | 65 | 1011.7 |
| 20260510131525 | 22 | 190 | 0.0 | 4.8 | 0.00 | 0.00 | 0.00 | 66 | 1012.4 |
| 20260510131025 | 22 | 190 | 0.0 | 4.8 | 0.00 | 0.00 | 0.00 | 66 | 1012.4 |
| 20260510130524 | 22 | 190 | 0.0 | 4.8 | 0.00 | 0.00 | 0.00 | 66 | 1012.4 |
| 20260510130108 | 22 | 0 | 1.6 | 6.4 | 0.00 | 0.00 | 0.00 | 65 | 1011.8 |
| 20260510130024 | 22 | 190 | 0.0 | 6.4 | 0.00 | 0.00 | 0.00 | 66 | 1012.4 |
| 20260510125524 | 22 | 190 | 1.6 | 6.4 | 0.00 | 0.00 | 0.00 | 66 | 1012.4 |
| 20260510125022 | 22 | 190 | 1.6 | 6.4 | 0.00 | 0.00 | 0.00 | 66 | 1012.3 |
| 20260510124639 | 22 | 190 | 0.0 | 4.8 | 0.00 | 0.00 | 0.00 | 65 | 1011.5 |
| 20260510124522 | 22 | 190 | 0.0 | 4.8 | 0.00 | 0.00 | 0.00 | 66 | 1012.1 |
| 20260510124022 | 22 | 190 | 0.0 | 4.8 | 0.00 | 0.00 | 0.00 | 66 | 1012.1 |
| 20260510123522 | 22 | 190 | 0.0 | 3.2 | 0.00 | 0.00 | 0.00 | 66 | 1012.0 |
| 20260510123101 | 22 | 0 | 0.0 | 4.8 | 0.00 | 0.00 | 0.00 | 65 | 1011.1 |
| 20260510123022 | 22 | 190 | 0.0 | 4.8 | 0.00 | 0.00 | 0.00 | 66 | 1011.8 |
| 20260510122521 | 22 | 190 | 1.6 | 4.8 | 0.00 | 0.00 | 0.00 | 66 | 1011.7 |
| 20260510122019 | 22 | 190 | 0.0 | 3.2 | 0.00 | 0.00 | 0.00 | 65 | 1011.5 |
| 20260510121559 | 22 | 0 | 0.0 | 0.0 | 0.00 | 0.00 | 0.00 | 64 | 1010.9 |
| 20260510121518 | 22 | 190 | 0.0 | 0.0 | 0.00 | 0.00 | 0.00 | 65 | 1011.5 |
| 20260510121021 | 22 | 190 | 0.0 | 0.0 | 0.00 | 0.00 | 0.00 | 65 | 1011.4 |
| 20260510120522 | 22 | 190 | 0.0 | 0.0 | 0.00 | 0.00 | 0.00 | 65 | 1011.4 |
| 20260510120104 | 22 | 0 | 0.0 | 4.8 | 0.00 | 0.00 | 0.00 | 64 | 1010.7 |
| 20260510120020 | 22 | 190 | 0.0 | 3.2 | 0.00 | 0.00 | 0.00 | 65 | 1011.3 |
| 20260510115520 | 22 | 190 | 0.0 | 4.8 | 0.00 | 0.00 | 0.00 | 64 | 1011.3 |
| 20260510115017 | 22 | 190 | 1.6 | 4.8 | 0.00 | 0.00 | 0.00 | 64 | 1011.3 |
| 20260510114601 | 22 | 0 | 0.0 | 4.8 | 0.00 | 0.00 | 0.00 | 63 | 1010.7 |
| 20260510114517 | 22 | 190 | 0.0 | 4.8 | 0.00 | 0.00 | 0.00 | 64 | 1011.2 |
| 20260510114016 | 22 | 190 | 0.0 | 4.8 | 0.00 | 0.00 | 0.00 | 63 | 1011.1 |
| 20260510113514 | 23 | 190 | 0.0 | 1.6 | 0.00 | 0.00 | 0.00 | 63 | 1011.1 |
| 20260510113110 | 23 | 0 | 0.0 | 1.6 | 0.00 | 0.00 | 0.00 | 62 | 1010.6 |
| 20260510113014 | 23 | 190 | 0.0 | 1.6 | 0.00 | 0.00 | 0.00 | 63 | 1011.1 |
| 20260510112517 | 23 | 190 | 0.0 | 0.0 | 0.00 | 0.00 | 0.00 | 63 | 1011.1 |
| 20260510112012 | 23 | 190 | 0.0 | 0.0 | 0.00 | 0.00 | 0.00 | 63 | 1011.2 |
| 20260510111607 | 23 | 0 | 0.0 | 0.0 | 0.00 | 0.00 | 0.00 | 63 | 1010.7 |
| 20260510111511 | 23 | 190 | 0.0 | 0.0 | 0.00 | 0.00 | 0.00 | 63 | 1011.2 |
| 20260510111012 | 23 | 190 | 0.0 | 0.0 | 0.00 | 0.00 | 0.00 | 63 | 1011.1 |
| 20260510110511 | 23 | 190 | 0.0 | 0.0 | 0.00 | 0.00 | 0.00 | 63 | 1011.1 |
| 20260510110109 | 23 | 0 | 0.0 | 0.0 | 0.00 | 0.00 | 0.00 | 62 | 1010.4 |
| 20260510110029 | 23 | 190 | 0.0 | 0.0 | 0.00 | 0.00 | 0.00 | 62 | 1011.1 |
| 20260510105511 | 23 | 190 | 0.0 | 0.0 | 0.00 | 0.00 | 0.00 | 62 | 1011.1 |
| 20260510105013 | 23 | 190 | 0.0 | 3.2 | 0.00 | 0.00 | 0.00 | 62 | 1011.0 |
| 20260510104608 | 23 | 190 | 0.0 | 0.0 | 0.00 | 0.00 | 0.00 | 62 | 1010.3 |
| 20260510104509 | 23 | 190 | 0.0 | 0.0 | 0.00 | 0.00 | 0.00 | 62 | 1010.9 |
| 20260510104009 | 23 | 190 | 0.0 | 0.0 | 0.00 | 0.00 | 0.00 | 62 | 1010.8 |
| 20260510103509 | 23 | 190 | 0.0 | 0.0 | 0.00 | 0.00 | 0.00 | 62 | 1010.7 |
| 20260510103110 | 23 | 0 | 0.0 | 1.6 | 0.00 | 0.00 | 0.00 | 62 | 1010.0 |
| 20260510103012 | 23 | 190 | 0.0 | 1.6 | 0.00 | 0.00 | 0.00 | 62 | 1010.6 |
| 20260510102512 | 23 | 190 | 0.0 | 1.6 | 0.00 | 0.00 | 0.00 | 62 | 1010.6 |
| 20260510102007 | 23 | 190 | 0.0 | 0.0 | 0.00 | 0.00 | 0.00 | 61 | 1010.5 |
| 20260510101605 | 24 | 0 | 0.0 | 0.0 | 0.00 | 0.00 | 0.00 | 61 | 1009.9 |
| 20260510101505 | 23 | 190 | 0.0 | 0.0 | 0.00 | 0.00 | 0.00 | 61 | 1010.5 |
| 20260510101005 | 24 | 190 | 0.0 | 0.0 | 0.00 | 0.00 | 0.00 | 61 | 1010.4 |
| 20260510100505 | 24 | 190 | 0.0 | 0.0 | 0.00 | 0.00 | 0.00 | 61 | 1010.4 |
| 20260510100107 | 24 | 0 | 0.0 | 0.0 | 0.00 | 0.00 | 0.00 | 61 | 1009.9 |
| 20260510100005 | 24 | 190 | 0.0 | 0.0 | 0.00 | 0.00 | 0.00 | 61 | 1010.5 |
| 20260510095505 | 24 | 190 | 0.0 | 0.0 | 0.00 | 0.00 | 0.00 | 61 | 1010.5 |
| 20260510095003 | 24 | 190 | 0.0 | 0.0 | 0.00 | 0.00 | 0.00 | 61 | 1010.6 |
| 20260510094613 | 24 | 0 | 0.0 | 0.0 | 0.00 | 0.00 | 0.00 | 61 | 1010.0 |
| 20260510094504 | 24 | 190 | 0.0 | 0.0 | 0.00 | 0.00 | 0.00 | 61 | 1010.6 |
| 20260510094002 | 24 | 190 | 0.0 | 1.6 | 0.00 | 0.00 | 0.00 | 61 | 1010.5 |
| 20260510093502 | 24 | 190 | 0.0 | 1.6 | 0.00 | 0.00 | 0.00 | 61 | 1010.6 |
| 20260510093121 | 24 | 0 | 0.0 | 0.0 | 0.00 | 0.00 | 0.00 | 60 | 1010.1 |
| 20260510093002 | 24 | 190 | 0.0 | 0.0 | 0.00 | 0.00 | 0.00 | 60 | 1010.6 |
| 20260510092600 | 24 | 190 | 0.0 | 0.0 | 0.00 | 0.00 | 0.00 | 60 | 1010.6 |
| 20260510092059 | 25 | 190 | 0.0 | 0.0 | 0.00 | 0.00 | 0.00 | 59 | 1010.6 |
| 20260510091558 | 25 | 190 | 0.0 | 0.0 | 0.00 | 0.00 | 0.00 | 59 | 1010.6 |
| 20260510091057 | 25 | 190 | 0.0 | 0.0 | 0.00 | 0.00 | 0.00 | 59 | 1010.7 |
| 20260510090557 | 25 | 190 | 0.0 | 0.0 | 0.00 | 0.00 | 0.00 | 58 | 1010.6 |
| 20260510090115 | 25 | 190 | 0.0 | 0.0 | 0.00 | 0.00 | 0.00 | 57 | 1010.6 |
| 20260510090059 | 25 | 0 | 0.0 | 0.0 | 0.00 | 0.00 | 0.00 | 57 | 1010.1 |
| 20260510085557 | 25 | 190 | 0.0 | 0.0 | 0.00 | 0.00 | 0.00 | 57 | 1010.6 |
| 20260510085055 | 25 | 190 | 0.0 | 0.0 | 0.00 | 0.00 | 0.00 | 57 | 1010.6 |
| 20260510084557 | 25 | 0 | 0.0 | 0.0 | 0.00 | 0.00 | 0.00 | 57 | 1010.2 |
| 20260510084554 | 25 | 190 | 0.0 | 0.0 | 0.00 | 0.00 | 0.00 | 57 | 1010.6 |
| 20260510084054 | 25 | 190 | 0.0 | 0.0 | 0.00 | 0.00 | 0.00 | 57 | 1010.7 |
| 20260510083556 | 25 | 190 | 0.0 | 0.0 | 0.00 | 0.00 | 0.00 | 57 | 1010.7 |
| 20260510083107 | 25 | 0 | 0.0 | 0.0 | 0.00 | 0.00 | 0.00 | 57 | 1010.3 |
| 20260510082551 | 25 | 190 | 0.0 | 0.0 | 0.00 | 0.00 | 0.00 | 57 | 1010.9 |
| 20260510082051 | 25 | 190 | 0.0 | 0.0 | 0.00 | 0.00 | 0.00 | 57 | 1010.9 |
| 20260510081607 | 25 | 190 | 0.0 | 0.0 | 0.00 | 0.00 | 0.00 | 56 | 1010.9 |
| 20260510081600 | 25 | 0 | 0.0 | 0.0 | 0.00 | 0.00 | 0.00 | 56 | 1010.5 |
| 20260510081051 | 25 | 190 | 0.0 | 0.0 | 0.00 | 0.00 | 0.00 | 56 | 1011.0 |
| 20260510080549 | 25 | 190 | 0.0 | 0.0 | 0.00 | 0.00 | 0.00 | 56 | 1011.0 |
| 20260510080059 | 25 | 0 | 0.0 | 0.0 | 0.00 | 0.00 | 0.00 | 55 | 1010.6 |
| 20260510080053 | 25 | 190 | 0.0 | 0.0 | 0.00 | 0.00 | 0.00 | 56 | 1011.1 |
| 20260510075547 | 25 | 190 | 0.0 | 0.0 | 0.00 | 0.00 | 0.00 | 55 | 1011.0 |
| 20260510075047 | 25 | 190 | 0.0 | 3.2 | 0.00 | 0.00 | 0.00 | 54 | 1011.1 |
| 20260510074600 | 26 | 0 | 0.0 | 9.7 | 0.00 | 0.00 | 0.00 | 53 | 1010.7 |
| 20260510074546 | 26 | 190 | 0.0 | 8.0 | 0.00 | 0.00 | 0.00 | 54 | 1011.2 |
| 20260510074047 | 26 | 190 | 1.6 | 9.7 | 0.00 | 0.00 | 0.00 | 54 | 1011.2 |
| 20260510073544 | 26 | 190 | 3.2 | 9.7 | 0.00 | 0.00 | 0.00 | 54 | 1011.3 |
| 20260510073100 | 26 | 190 | 0.0 | 8.0 | 0.00 | 0.00 | 0.00 | 53 | 1010.9 |
| 20260510073044 | 26 | 190 | 0.0 | 8.0 | 0.00 | 0.00 | 0.00 | 54 | 1011.3 |
| 20260510072543 | 26 | 190 | 1.6 | 8.0 | 0.00 | 0.00 | 0.00 | 54 | 1011.3 |
| 20260510072043 | 26 | 190 | 0.0 | 6.4 | 0.00 | 0.00 | 0.00 | 53 | 1011.3 |
| 20260510071600 | 26 | 190 | 0.0 | 0.0 | 0.00 | 0.00 | 0.00 | 52 | 1011.0 |
| 20260510071542 | 26 | 190 | 0.0 | 0.0 | 0.00 | 0.00 | 0.00 | 53 | 1011.4 |
| 20260510071040 | 26 | 190 | 0.0 | 0.0 | 0.00 | 0.00 | 0.00 | 52 | 1011.5 |
| 20260510070540 | 26 | 190 | 0.0 | 0.0 | 0.00 | 0.00 | 0.00 | 52 | 1011.6 |
| 20260510070058 | 26 | 0 | 0.0 | 3.2 | 0.00 | 0.00 | 0.00 | 51 | 1011.2 |
| 20260510070040 | 26 | 190 | 0.0 | 3.2 | 0.00 | 0.00 | 0.00 | 52 | 1011.7 |
| 20260510065640 | 26 | 190 | 0.0 | 3.2 | 0.00 | 0.00 | 0.00 | 53 | 1011.7 |
| 20260510065038 | 26 | 190 | 0.0 | 1.6 | 0.00 | 0.00 | 0.00 | 53 | 1011.7 |
| 20260510064605 | 26 | 0 | 0.0 | 0.0 | 0.00 | 0.00 | 0.00 | 52 | 1011.3 |
| 20260510064543 | 26 | 190 | 0.0 | 0.0 | 0.00 | 0.00 | 0.00 | 53 | 1011.8 |
| 20260510064037 | 26 | 190 | 0.0 | 3.2 | 0.00 | 0.00 | 0.00 | 53 | 1011.8 |
| 20260510063537 | 26 | 190 | 0.0 | 8.0 | 0.00 | 0.00 | 0.00 | 53 | 1011.8 |
| 20260510063057 | 26 | 190 | 3.2 | 8.0 | 0.00 | 0.00 | 0.00 | 52 | 1011.4 |
| 20260510063038 | 26 | 190 | 3.2 | 8.0 | 0.00 | 0.00 | 0.00 | 52 | 1011.8 |
| 20260510062536 | 26 | 190 | 0.0 | 6.4 | 0.00 | 0.00 | 0.00 | 52 | 1011.8 |
| 20260510062035 | 26 | 190 | 0.0 | 8.0 | 0.00 | 0.00 | 0.00 | 53 | 1011.9 |
| 20260510061600 | 26 | 190 | 3.2 | 8.0 | 0.00 | 0.00 | 0.00 | 53 | 1011.5 |
| 20260510061534 | 26 | 190 | 1.6 | 8.0 | 0.00 | 0.00 | 0.00 | 53 | 1012.0 |
| 20260510061034 | 26 | 190 | 1.6 | 8.0 | 0.00 | 0.00 | 0.00 | 53 | 1012.0 |
| 20260510060534 | 26 | 190 | 3.2 | 8.0 | 0.00 | 0.00 | 0.00 | 53 | 1012.1 |
| 20260510060059 | 27 | 190 | 0.0 | 3.2 | 0.00 | 0.00 | 0.00 | 52 | 1011.6 |
| 20260510060032 | 26 | 190 | 0.0 | 6.4 | 0.00 | 0.00 | 0.00 | 53 | 1012.1 |
| 20260510055531 | 27 | 190 | 0.0 | 4.8 | 0.00 | 0.00 | 0.00 | 52 | 1012.1 |
| 20260510055031 | 27 | 190 | 0.0 | 6.4 | 0.00 | 0.00 | 0.00 | 51 | 1012.2 |
| 20260510054558 | 27 | 190 | 0.0 | 3.2 | 0.00 | 0.00 | 0.00 | 50 | 1011.7 |
| 20260510054532 | 27 | 190 | 0.0 | 6.4 | 0.00 | 0.00 | 0.00 | 51 | 1012.2 |
| 20260510054031 | 27 | 190 | 0.0 | 4.8 | 0.00 | 0.00 | 0.00 | 51 | 1012.1 |
| 20260510053532 | 27 | 190 | 0.0 | 4.8 | 0.00 | 0.00 | 0.00 | 51 | 1012.1 |
| 20260510053059 | 27 | 0 | 0.0 | 9.7 | 0.00 | 0.00 | 0.00 | 50 | 1011.7 |
| 20260510053031 | 27 | 190 | 0.0 | 9.7 | 0.00 | 0.00 | 0.00 | 51 | 1012.2 |
| 20260510052530 | 27 | 190 | 1.6 | 8.0 | 0.00 | 0.00 | 0.00 | 51 | 1012.2 |
| 20260510052030 | 27 | 190 | 0.0 | 8.0 | 0.00 | 0.00 | 0.00 | 51 | 1012.1 |
| 20260510051605 | 27 | 190 | 1.6 | 11.3 | 0.00 | 0.00 | 0.00 | 50 | 1011.7 |
| 20260510051530 | 27 | 190 | 1.6 | 8.0 | 0.00 | 0.00 | 0.00 | 51 | 1012.1 |
| 20260510051029 | 27 | 190 | 1.6 | 11.3 | 0.00 | 0.00 | 0.00 | 51 | 1012.0 |
| 20260510050528 | 27 | 190 | 1.6 | 9.7 | 0.00 | 0.00 | 0.00 | 51 | 1011.9 |
| 20260510050057 | 27 | 190 | 1.6 | 11.3 | 0.00 | 0.00 | 0.00 | 50 | 1011.4 |
| 20260510050033 | 27 | 190 | 3.2 | 11.3 | 0.00 | 0.00 | 0.00 | 50 | 1011.8 |
| 20260510045530 | 27 | 190 | 3.2 | 11.3 | 0.00 | 0.00 | 0.00 | 50 | 1011.8 |
| 20260510045028 | 27 | 190 | 1.6 | 12.9 | 0.00 | 0.00 | 0.00 | 49 | 1011.7 |
| 20260510044612 | 27 | 190 | 3.2 | 16.1 | 0.00 | 0.00 | 0.00 | 48 | 1011.3 |
| 20260510044534 | 27 | 190 | 3.2 | 16.1 | 0.00 | 0.00 | 0.00 | 49 | 1011.8 |
| 20260510044026 | 28 | 190 | 0.0 | 16.1 | 0.00 | 0.00 | 0.00 | 48 | 1011.6 |
| 20260510043526 | 28 | 190 | 1.6 | 16.1 | 0.00 | 0.00 | 0.00 | 48 | 1011.5 |
| 20260510043058 | 28 | 190 | 3.2 | 8.0 | 0.00 | 0.00 | 0.00 | 47 | 1011.1 |
| 20260510043025 | 28 | 190 | 1.6 | 8.0 | 0.00 | 0.00 | 0.00 | 47 | 1011.4 |
| 20260510042523 | 28 | 190 | 1.6 | 17.7 | 0.00 | 0.00 | 0.00 | 47 | 1011.3 |
| 20260510042023 | 28 | 190 | 3.2 | 17.7 | 0.00 | 0.00 | 0.00 | 46 | 1011.2 |
| 20260510041559 | 29 | 190 | 4.8 | 16.1 | 0.00 | 0.00 | 0.00 | 46 | 1010.9 |
| 20260510041522 | 29 | 190 | 4.8 | 16.1 | 0.00 | 0.00 | 0.00 | 46 | 1011.1 |
| 20260510041021 | 29 | 190 | 4.8 | 14.5 | 0.00 | 0.00 | 0.00 | 46 | 1010.9 |
| 20260510040520 | 29 | 190 | 1.6 | 11.3 | 0.00 | 0.00 | 0.00 | 46 | 1010.6 |
| 20260510040100 | 29 | 0 | 1.6 | 8.0 | 0.00 | 0.00 | 0.00 | 45 | 1010.4 |
| 20260510040020 | 29 | 190 | 0.0 | 8.0 | 0.00 | 0.00 | 0.00 | 46 | 1010.5 |
| 20260510035519 | 29 | 190 | 0.0 | 4.8 | 0.00 | 0.00 | 0.00 | 45 | 1010.5 |
| 20260510035020 | 29 | 190 | 0.0 | 4.8 | 0.00 | 0.00 | 0.00 | 45 | 1010.4 |
| 20260510034557 | 29 | 0 | 0.0 | 9.7 | 0.00 | 0.00 | 0.00 | 44 | 1010.1 |
| 20260510034520 | 29 | 190 | 0.0 | 9.7 | 0.00 | 0.00 | 0.00 | 45 | 1010.3 |
| 20260510034021 | 29 | 190 | 1.6 | 9.7 | 0.00 | 0.00 | 0.00 | 45 | 1010.1 |
| 20260510033519 | 29 | 190 | 0.0 | 9.7 | 0.00 | 0.00 | 0.00 | 44 | 1010.0 |
| 20260510033110 | 30 | 190 | 0.0 | 8.0 | 0.00 | 0.00 | 0.00 | 44 | 1009.9 |
| 20260510033019 | 30 | 190 | 0.0 | 8.0 | 0.00 | 0.00 | 0.00 | 45 | 1009.9 |
| 20260510032518 | 30 | 190 | 0.0 | 8.0 | 0.00 | 0.00 | 0.00 | 45 | 1009.7 |
| 20260510032018 | 30 | 190 | 1.6 | 6.4 | 0.00 | 0.00 | 0.00 | 45 | 1009.6 |
| 20260510031557 | 30 | 0 | 1.6 | 4.8 | 0.00 | 0.00 | 0.00 | 44 | 1009.5 |
| 20260510031523 | 30 | 190 | 0.0 | 4.8 | 0.00 | 0.00 | 0.00 | 45 | 1009.4 |
| 20260510031018 | 30 | 190 | 0.0 | 0.0 | 0.00 | 0.00 | 0.00 | 45 | 1009.4 |
| 20260510030521 | 30 | 190 | 0.0 | 4.8 | 0.00 | 0.00 | 0.00 | 44 | 1009.2 |
| 20260510030106 | 30 | 0 | 0.0 | 8.0 | 0.00 | 0.00 | 0.00 | 44 | 1008.9 |
| 20260510030031 | 30 | 190 | 0.0 | 4.8 | 0.00 | 0.00 | 0.00 | 44 | 1009.1 |
| 20260510025517 | 30 | 190 | 1.6 | 8.0 | 0.00 | 0.00 | 0.00 | 44 | 1008.9 |
| 20260510025019 | 30 | 190 | 1.6 | 8.0 | 0.00 | 0.00 | 0.00 | 43 | 1008.8 |
| 20260510024558 | 30 | 0 | 0.0 | 3.2 | 0.00 | 0.00 | 0.00 | 43 | 1008.7 |
| 20260510024519 | 30 | 190 | 0.0 | 3.2 | 0.00 | 0.00 | 0.00 | 43 | 1008.8 |
| 20260510024017 | 30 | 190 | 0.0 | 6.4 | 0.00 | 0.00 | 0.00 | 43 | 1008.8 |
| 20260510023519 | 30 | 190 | 0.0 | 9.7 | 0.00 | 0.00 | 0.00 | 43 | 1008.7 |
| 20260510023059 | 30 | 0 | 3.2 | 9.7 | 0.00 | 0.00 | 0.00 | 42 | 1008.3 |
| 20260510023017 | 30 | 190 | 3.2 | 9.7 | 0.00 | 0.00 | 0.00 | 43 | 1008.5 |
| 20260510022516 | 30 | 190 | 0.0 | 11.3 | 0.00 | 0.00 | 0.00 | 42 | 1008.4 |
| 20260510022016 | 31 | 190 | 0.0 | 11.3 | 0.00 | 0.00 | 0.00 | 42 | 1008.3 |
| 20260510021608 | 31 | 0 | 1.6 | 6.4 | 0.00 | 0.00 | 0.00 | 41 | 1008.3 |
| 20260510021516 | 31 | 190 | 0.0 | 6.4 | 0.00 | 0.00 | 0.00 | 41 | 1008.3 |
| 20260510021017 | 31 | 190 | 0.0 | 8.0 | 0.00 | 0.00 | 0.00 | 40 | 1008.2 |
| 20260510020515 | 31 | 190 | 1.6 | 8.0 | 0.00 | 0.00 | 0.00 | 40 | 1008.1 |
| 20260510020100 | 31 | 0 | 0.0 | 14.5 | 0.00 | 0.00 | 0.00 | 39 | 1007.9 |
| 20260510020016 | 31 | 190 | 1.6 | 14.5 | 0.00 | 0.00 | 0.00 | 40 | 1007.9 |
| 20260510015517 | 31 | 190 | 1.6 | 14.5 | 0.00 | 0.00 | 0.00 | 40 | 1007.9 |
| 20260510015015 | 31 | 190 | 3.2 | 14.5 | 0.00 | 0.00 | 0.00 | 39 | 1007.7 |
| 20260510014601 | 31 | 190 | 4.8 | 12.9 | 0.00 | 0.00 | 0.00 | 39 | 1007.5 |
| 20260510014515 | 31 | 190 | 3.2 | 12.9 | 0.00 | 0.00 | 0.00 | 39 | 1007.6 |
| 20260510014015 | 31 | 190 | 3.2 | 11.3 | 0.00 | 0.00 | 0.00 | 39 | 1007.4 |
| 20260510013517 | 32 | 190 | 1.6 | 12.9 | 0.00 | 0.00 | 0.00 | 38 | 1007.2 |
| 20260510013059 | 32 | 190 | 4.8 | 16.1 | 0.00 | 0.00 | 0.00 | 36 | 1007.1 |
| 20260510013015 | 32 | 190 | 3.2 | 16.1 | 0.00 | 0.00 | 0.00 | 37 | 1007.1 |
| 20260510012513 | 32 | 190 | 8.0 | 16.1 | 0.00 | 0.00 | 0.00 | 35 | 1006.8 |
| 20260510012013 | 32 | 190 | 1.6 | 14.5 | 0.00 | 0.00 | 0.00 | 34 | 1006.5 |
| 20260510011559 | 32 | 190 | 6.4 | 17.7 | 0.00 | 0.00 | 0.00 | 33 | 1006.5 |
| 20260510011514 | 32 | 190 | 3.2 | 16.1 | 0.00 | 0.00 | 0.00 | 34 | 1006.4 |
| 20260510011017 | 32 | 190 | 6.4 | 19.3 | 0.00 | 0.00 | 0.00 | 34 | 1006.2 |
| 20260510010513 | 33 | 190 | 4.8 | 19.3 | 0.00 | 0.00 | 0.00 | 34 | 1006.1 |
| 20260510010100 | 33 | 190 | 9.7 | 27.4 | 0.00 | 0.00 | 0.00 | 33 | 1006.0 |
| 20260510010015 | 33 | 190 | 8.0 | 24.1 | 0.00 | 0.00 | 0.00 | 33 | 1006.0 |
| 20260510005512 | 33 | 190 | 8.0 | 27.4 | 0.00 | 0.00 | 0.00 | 33 | 1005.8 |
| 20260510005011 | 33 | 190 | 11.3 | 20.9 | 0.00 | 0.00 | 0.00 | 33 | 1005.7 |
| 20260510004600 | 33 | 190 | 8.0 | 22.5 | 0.00 | 0.00 | 0.00 | 32 | 1005.6 |
| 20260510004511 | 33 | 190 | 8.0 | 16.1 | 0.00 | 0.00 | 0.00 | 32 | 1005.5 |
| 20260510004015 | 33 | 190 | 6.4 | 22.5 | 0.00 | 0.00 | 0.00 | 32 | 1005.2 |
| 20260510003512 | 34 | 190 | 9.7 | 22.5 | 0.00 | 0.00 | 0.00 | 32 | 1005.2 |
| 20260510003100 | 34 | 190 | 6.4 | 17.7 | 0.00 | 0.00 | 0.00 | 31 | 1005.2 |
| 20260510003021 | 34 | 190 | 4.8 | 17.7 | 0.00 | 0.00 | 0.00 | 31 | 1005.0 |
| 20260510002511 | 34 | 190 | 4.8 | 17.7 | 0.00 | 0.00 | 0.00 | 31 | 1004.9 |
| 20260510002011 | 34 | 190 | 6.4 | 17.7 | 0.00 | 0.00 | 0.00 | 31 | 1004.9 |
| 20260510001556 | 34 | 190 | 6.4 | 17.7 | 0.00 | 0.00 | 0.00 | 30 | 1005.0 |
| 20260510001511 | 34 | 190 | 6.4 | 17.7 | 0.00 | 0.00 | 0.00 | 31 | 1004.9 |
| 20260510001011 | 34 | 190 | 6.4 | 17.7 | 0.00 | 0.00 | 0.00 | 31 | 1004.8 |
| 20260510000511 | 35 | 190 | 6.4 | 17.7 | 0.00 | 0.00 | 0.00 | 30 | 1004.7 |
| 20260510000103 | 35 | 190 | 6.4 | 14.5 | 0.00 | 0.00 | 0.00 | 30 | 1004.7 |
| 20260510000010 | 35 | 190 | 4.8 | 14.5 | 0.00 | 0.00 | 0.00 | 30 | 1004.7 |
| 20260509235512 | 35 | 190 | 6.4 | 16.1 | 0.00 | 0.00 | 0.00 | 30 | 1004.7 |
| 20260509235010 | 35 | 190 | 6.4 | 22.5 | 0.00 | 0.00 | 0.00 | 30 | 1004.6 |
| 20260509234559 | 35 | 190 | 8.0 | 22.5 | 0.00 | 0.00 | 0.00 | 29 | 1004.5 |
| 20260509234514 | 35 | 190 | 8.0 | 22.5 | 0.00 | 0.00 | 0.00 | 30 | 1004.6 |
| 20260509234010 | 35 | 190 | 6.4 | 14.5 | 0.00 | 0.00 | 0.00 | 29 | 1004.5 |
| 20260509233509 | 35 | 190 | 3.2 | 12.9 | 0.00 | 0.00 | 0.00 | 29 | 1004.4 |
| 20260509233058 | 35 | 190 | 4.8 | 9.7 | 0.00 | 0.00 | 0.00 | 28 | 1004.3 |
| 20260509233020 | 35 | 190 | 4.8 | 9.7 | 0.00 | 0.00 | 0.00 | 29 | 1004.3 |
| 20260509232515 | 35 | 190 | 3.2 | 9.7 | 0.00 | 0.00 | 0.00 | 30 | 1004.3 |
| 20260509232009 | 35 | 190 | 0.0 | 16.1 | 0.00 | 0.00 | 0.00 | 29 | 1004.1 |
| 20260509231601 | 35 | 190 | 3.2 | 16.1 | 0.00 | 0.00 | 0.00 | 29 | 1004.1 |
| 20260509231509 | 35 | 190 | 0.0 | 16.1 | 0.00 | 0.00 | 0.00 | 29 | 1004.1 |
| 20260509231008 | 35 | 190 | 6.4 | 16.1 | 0.00 | 0.00 | 0.00 | 29 | 1004.0 |
| 20260509230508 | 35 | 190 | 6.4 | 14.5 | 0.00 | 0.00 | 0.00 | 29 | 1003.9 |
| 20260509230008 | 35 | 190 | 4.8 | 19.3 | 0.00 | 0.00 | 0.00 | 29 | 1003.9 |
| 20260509225508 | 35 | 190 | 9.7 | 19.3 | 0.00 | 0.00 | 0.00 | 29 | 1003.9 |
| 20260509225009 | 35 | 190 | 4.8 | 14.5 | 0.00 | 0.00 | 0.00 | 29 | 1003.9 |
| 20260509224601 | 35 | 190 | 4.8 | 19.3 | 0.00 | 0.00 | 0.00 | 28 | 1003.8 |
| 20260509224507 | 35 | 190 | 6.4 | 19.3 | 0.00 | 0.00 | 0.00 | 29 | 1003.9 |
| 20260509224008 | 35 | 190 | 6.4 | 19.3 | 0.00 | 0.00 | 0.00 | 29 | 1003.9 |
| 20260509223506 | 35 | 190 | 6.4 | 12.9 | 0.00 | 0.00 | 0.00 | 29 | 1003.9 |
| 20260509223058 | 35 | 190 | 1.6 | 11.3 | 0.00 | 0.00 | 0.00 | 29 | 1003.9 |
| 20260509223005 | 35 | 190 | 3.2 | 9.7 | 0.00 | 0.00 | 0.00 | 29 | 1004.0 |
| 20260509222505 | 35 | 190 | 3.2 | 11.3 | 0.00 | 0.00 | 0.00 | 29 | 1004.0 |
| 20260509222103 | 35 | 190 | 4.8 | 12.9 | 0.00 | 0.00 | 0.00 | 29 | 1004.0 |
| 20260509221603 | 35 | 190 | 6.4 | 17.7 | 0.00 | 0.00 | 0.00 | 28 | 1004.1 |
| 20260509221504 | 35 | 190 | 4.8 | 16.1 | 0.00 | 0.00 | 0.00 | 29 | 1004.1 |
| 20260509221006 | 35 | 190 | 4.8 | 17.7 | 0.00 | 0.00 | 0.00 | 29 | 1004.1 |
| 20260509220502 | 35 | 190 | 8.0 | 17.7 | 0.00 | 0.00 | 0.00 | 29 | 1004.1 |
| 20260509220110 | 35 | 190 | 4.8 | 19.3 | 0.00 | 0.00 | 0.00 | 28 | 1004.4 |
| 20260509220002 | 35 | 190 | 3.2 | 17.7 | 0.00 | 0.00 | 0.00 | 28 | 1004.2 |
| 20260509215501 | 35 | 190 | 6.4 | 19.3 | 0.00 | 0.00 | 0.00 | 29 | 1004.3 |